{"data":{"norad_id":59855,"intl_designator":"2024-097W","name":"STARLINK-31882","alt_names":[],"object_type":"PAYLOAD","status":"ACTIVE","operator":null,"country":"US","launch_date":"2024-05-23","launch_site_code":"AFETR","launch_vehicle":null,"mission":null,"orbit_class":"UNKNOWN","rcs_meters":null,"size_class":null,"mass_kg":null,"dimensions":null,"purposes":["comms"],"wikipedia_slug":null,"has_3d_model":false,"image_url":null,"decayed_at":null,"tle_current":{"epoch":"2026-05-24T20:11:29.763744Z","epoch_age_seconds":88498,"freshness":"FRESH","line1":"1 59855U 24097W   26144.84131671  .00004654  00000+0  17847-3 0  9990","line2":"2 59855  42.9995 197.3212 0000834 312.7563  47.3218 15.27588272113646","mean_motion":15.27588272,"eccentricity":8.34e-5,"inclination_deg":42.9995,"raan_deg":197.3212,"arg_perigee_deg":312.7563,"mean_anomaly_deg":47.3218,"bstar":0.00017847,"rev_number":11364,"period_min":94.26623825245,"perigee_km":482.45210595293,"apogee_km":483.59654766225,"semimajor_km":6861.1613268076,"source":"CELESTRAK","updated_at":"2026-05-25T13:38:19.089342Z"}}}